Regional Weather Roundup
Issued by NWS

Home | Current Version | Previous Version | Text Only | Print | Product List | Glossary Off
Versions: 1 2 3 4 5 6 7 8 9 10 11 12 13 14 15 16 17 18 19 20 21 22 23 24 25 26 27 28 29 30 31 32 33 34 35 36 37 38 39 40 41 42 43 44 45 46 47 48 49 50

000
ASUS43 KMPX 290410
RWRMN
WEATHER ROUNDUP FOR MINNESOTA
NATIONAL WEATHER SERVICE TWIN CITIES/CHANHASSEN MN
1100 PM CDT THU MAY 28 2015


NOTE: "FAIR" INDICATES FEW OR NO CLOUDS BELOW 12,000 FEET WITH NO
SIGNIFICANT WEATHER AND/OR OBSTRUCTIONS TO VISIBILITY. N/A MEANS
CURRENT SKY AND/OR WEATHER CONDITIONS ARE NOT AVAILABLE.

MNZ060>063-068>070-290500-
   Twin Cities Metro

CITY           SKY/WX    TMP DP  RH WIND       PRES   REMARKS
TWIN CITIES    CLOUDY    75  53  46 S9        29.94R
ST PAUL        MOCLDY    70  55  59 S5        29.94R
CRYSTAL        MOCLDY    76  53  44 S12G21    29.92R
BLAINE         MOCLDY    73  54  49 S10G17    29.93S
LAKEVILLE      CLOUDY    72  54  53 S5        29.95R
EDEN PRAIRIE   MOCLDY    73  56  54 S15       29.93R
SOUTH ST PAUL  MOCLDY    71  53  52 S5        29.95R
LAKE ELMO      FAIR      68  55  64 S6        29.97R
$$
MNZ001>005-007-008-013>017-022>024-027-028-290500-
   Northwest Minnesota

CITY           SKY/WX    TMP DP  RH WIND       PRES   REMARKS
BEMIDJI        LGT RAIN  61  60  96 CALM      29.87R
HALLOCK        CLOUDY    63  59  88 N16       29.87R
ROSEAU         DRIZZLE   63  57  82 CALM      29.84S
WARROAD        LGT RAIN  61  55  82 NW6       29.85R
THIEF RVR FALL CLOUDY    64  63  94 CALM      29.84S
CROOKSTON      CLOUDY    66  63  88 N3        29.84R
FOSSTON        CLOUDY    61  59  94 SE6       29.86S
DETROIT LAKES  RAIN      61  59  94 S9        29.89S
MOORHEAD       LGT RAIN  63  61  94 S10       29.85R
PARK RAPIDS    LGT RAIN  63  60  90 NW7       29.87F
MAHNOMEN       LGT RAIN  62  60  91 S6        29.85S
$$
MNZ006-009>011-018-025>026-290500-
   North Central Minnesota

CITY           SKY/WX    TMP DP  RH WIND       PRES   REMARKS
BAUDETTE       CLOUDY    60  58  92 SW8       29.82R
FLAG ISLAND    LGT RAIN  59  57  94 CALM      29.82F
INTL FALLS     LGT RAIN  59  58  96 S7        29.85F
WASKISH        LGT RAIN  61  59  94 SE7       29.86S
BIG FORK       LGT RAIN  61  59  94 CALM      29.89S
LONGVILLE      CLOUDY    66  57  72 W3        29.89R
GRAND RAPIDS   CLOUDY    66  52  59 SE6       29.87S
CRANE LAKE     LGT RAIN  61  57  88 CALM      29.91R
ORR            CLOUDY    63  55  77 CALM      29.88R
COOK           CLOUDY    66  52  59 SW8       29.91R
WALKER         RAIN      62  58  86 W6        29.88S
$$
MNZ012-019>021-037-290500-
   Northeast Minnesota

CITY           SKY/WX    TMP DP  RH WIND       PRES   REMARKS
DULUTH         CLOUDY    45  42  89 E10       29.95S
HIBBING        CLOUDY    57  48  72 SE6       29.89F
EVELETH        CLOUDY    57  46  67 S6        29.91F
DULUTH HARBOR  CLOUDY    43  41  93 E7        29.98F
TWO HARBORS    MOCLDY    50  45  81 CALM      29.95S
SILVER BAY     MOCLDY    48  45  87 CALM      29.94F
GRAND MARAIS     N/A     40  38  93 SW7       29.95F
G MARAIS ARPRT CLOUDY    54  46  76 CALM      29.95F
$$
MNZ029>031-032-039>041-046>048-054>057-064-290500-
   West Central Minnesota

CITY           SKY/WX    TMP DP  RH WIND       PRES   REMARKS
FERGUS FALLS   TSTM      61  61 100 N3        29.90R
WHEATON        CLOUDY    61  59  94 NW13G24   29.92R
MORRIS         CLOUDY    72  57  60 W10       29.87R
ALEXANDRIA     CLOUDY    72  57  59 S22G31    29.88R
ELBOW LAKE     TSTM      61  60  96 N8G23     29.92R
WADENA         HVY RAIN  63  61  94 N6        29.89R
GLENWOOD       MOCLDY    72  57  60 S22G29    29.88F
APPLETON       MOCLDY    73  57  56 S12       29.85F
BENSON         CLOUDY    72  55  56 S15       29.87F
ORTONVILLE     RAIN      72  55  56 S10G16    29.86R
MADISON        CLOUDY    70  55  60 S9        29.88R
WILLMAR        FAIR      72  57  60 S3        29.92S
$$
MNZ033>034-036-042>043-049>051-058-059-290500-
   Central Minnesota

CITY           SKY/WX    TMP DP  RH WIND       PRES   REMARKS
ST CLOUD       MOCLDY    70  55  59 S8        29.91R
SAUK CENTRE    FAIR      71  56  59 S18       29.88S
PAYNESVILLE    MOCLDY    69  55  62 SE12G18   29.92R
AITKIN         CLOUDY    72  54  53 S9        29.87S
PINE RIVER     CLOUDY    72  57  60 NW9       29.92R
BRAINERD       MOCLDY    70  52  52 S10       29.88R
STAPLES        CLOUDY    72  50  46 S5        29.87S
LONG PRAIRIE   FAIR      70  55  60 S17G25    29.88S
LITTLE FALLS   MOCLDY    72  52  49 S10       29.89R
LITCHFIELD     MOCLDY    72  57  60 S3        29.93S
BUFFALO        MOCLDY    71  56  58 S6        29.94S
MAPLE LAKE     MOCLDY    73  59  62 S7        29.93S
$$
MNZ037-044-045-052-053-290500-
   East Central Minnesota

CITY           SKY/WX    TMP DP  RH WIND       PRES   REMARKS
PRINCETON      MOCLDY    70  54  56 SE6       29.92R
MORA           MOCLDY    68  52  56 SE5       29.93S
CAMBRIDGE      MOCLDY    73  55  53 SE3       29.90F
RUSH CITY      MOCLDY    68  55  62 SE6       29.93S
MOOSE LAKE     PTCLDY    46  43  87 NE3       29.92S
HINCKLEY       CLOUDY    70  55  60 SE5       29.93R
CLOQUET        CLOUDY    43  43 100 E5        29.94F FOG
MCGREGOR       CLOUDY    63  52  67 SE7       29.90F
$$
MNZ071>073-080-081-089-090-097-098-290500-
   Southwest Minnesota

CITY           SKY/WX    TMP DP  RH WIND       PRES   REMARKS
MONTEVIDEO     MOCLDY    72  57  60 SW12G17   29.90R
GRANITE FALLS  MOCLDY    69  58  69 SE14      29.91S
CANBY          CLOUDY    69  58  67 S8        29.90R
MARSHALL       CLOUDY    68  55  64 S9        29.89R
REDWOOD FALLS  MOCLDY    69  59  70 S14       29.90F
OLIVIA         PTCLDY    68  57  68 S10       29.91F
PIPESTONE      MOCLDY    64  57  77 S12       29.92R
WINDOM         CLOUDY    66  61  82 S12G17    29.93F
WORTHINGTON    CLOUDY    64  57  77 S18       29.92F
JACKSON        CLOUDY    66  61  82 S12       29.95F
TRACY          CLOUDY    67  60  79 S9G16     29.91R
SLAYTON        CLOUDY    64  60  86 S12       29.93R
$$
MNZ065>067-074>077-082>085-091>093-290500-
   South Central Minnesota

CITY           SKY/WX    TMP DP  RH WIND       PRES   REMARKS
MANKATO        CLOUDY    72  57  60 S13G21    29.94F
NEW ULM        MOCLDY    68  59  73 S10       29.92F
ST JAMES       MOCLDY    70  63  78 S9        29.94F
FAIRMONT       CLOUDY    66  57  72 S13       29.95S
GLENCOE        MOCLDY    71  61  71 S8        29.93S
FARIBAULT      CLOUDY    72  55  56 S8        29.96S
OWATONNA       CLOUDY    72  54  53 S9        29.96F
WASECA         CLOUDY    70  55  60 S10       29.96F
ALBERT LEA     CLOUDY    72  57  60 S8        29.97
$$
MNZ078>079-086>088-094>096-290500-
   Southeast Minnesota

CITY           SKY/WX    TMP DP  RH WIND       PRES   REMARKS
ROCHESTER      CLOUDY    69  54  58 S12       29.99S
RED WING       CLOUDY    73  52  46 S7        29.95R
STANTON        CLOUDY    72  54  52 S7        29.94S
DODGE CENTER   CLOUDY    70  55  60 S12       29.98S
WINONA         CLOUDY    70  54  56 CALM      29.97F
AUSTIN         CLOUDY    66  55  68 S6        29.98S
PRESTON        CLOUDY    66  53  61 S6        30.00S
$$
ABBREVIATIONS USED IN REMARKS
   TC - TEMPERATURES IN CELSIUS
  WCI - WIND CHILL INDEX
   HX - HEAT INDEX
  VSB - VISIBILITY
$$



USA.gov is the U.S. government's official web portal to all federal, state and local government web resources and services.